Showing default

HJS-6B, 63429

Orbit data source: Space-Track

HJS-6B, 63429 is a payload satellite owned by Zhongguo Xingwang (CN) in LEO that was launched on Tue, 01 Apr 2025 UTC via a CHANG ZHENG 2D launch vehicle from the Jiuquan Satellite Launch Center, China (JSC). Payload-class satellites include a variety of spacecraft equipped with specific instruments for various scientific and technological missions. These include communications satellites like Starlink; space stations such as the ISS; scientific satellites like the Hubble; Earth observation satellites from companies like Planet Labs, Umbra, and HawkEye 360; GPS; miniature CubeSats for education and research; and military/defense satellites.

Loading next visibility...
Identifier
63429, 2025-067B
Orbit
LEO
Country
Flag of CNCN / PRC
Related business
Manufacturer
YINNT
Mission
Operational Civil Communications
Bus & Motor
Unknown
Mass
~300 kg wet, ~300 kg dry
Launch date (UTC)
2025-04-01 (7 months ago)
Launch vehicle
CHANG ZHENG 2D
Launch site
Jiuquan Satellite Launch Center, China (JSC)
Object type
Payload
Rocket body
Debris
Shape & HBR
Box + 2 Pan, 1.1 m
Radar Cross Section
2.320 m², Large (>1 m²)

Expand to show TLE details & history
Last TLE update: 6 hours ago

TLE from 6 hours ago
0 HJS-6B
1 63429U 25067B   25309.28571919  .00014850  00000-0  40432-3 0  9999
2 63429  54.9930 308.8757 0011482 112.7698 247.4544 15.37720003 33570
Epoch: 2025-11-05T06:51Z
TLE epoch observation values (Epoch: 2025-11-05T06:51:26.138Z)
Latitude
-0.00005°
Longitude
161.25618°
Altitude
456.967 km
Speed
7.638 km/s
True Right ascension
20h 35m 30s
True Declination
0° 00' 00"
Sunlit
Object was in daylight at epoch
Visualization orbit readout
Latitude
Unknown
Longitude
Unknown
Altitude
Unknown
Speed
Unknown
Apparent Right ascension
Unknown
Apparent Declination
Unknown
Sunlit
N/A
Visualization observer readout
Local Sidereal Time
09:13:11
Azimuth
Unknown
Elevation
Unknown
Doppler factor
Unknown
Orbital elements
Apogee altitude
460.66 km
Perigee altitude
444.973 km
Semi-major axis
6,830.954 km
Eccentricity
0.00115
Inclination
54.993°
RAAN
308.8757°
Arg. of periapsis
112.7698°
True anomaly
247.33295°
Mean anomaly
247.4544°
Eccentric anomaly
247.39367°
Mean motion
3.84433 °/min
Orbital period
93.64 mins
BSTAR
0.00040432
Loading maneuver chart data...
Computing Atmospheric mass density...
Loading historical data...
Loading historical data...
Loading historical data...
Loading historical data...
Loading historical data...
Loading historical data...
Loading historical data...
Other satellites on launch #67 in the year 2025 (2025-04-01 UTC)

Documentation

Showing up to 5 results
|